Weather History for Mattoon, IL

Change the Weather History Date:

Tuesday, June 18, 2013

  Actual Average Record
Temperature  
Mean Temperature 74 °F 73 °F  
Max Temperature 85 °F 83 °F 95 °F (1987)
Min Temperature 62 °F 63 °F 45 °F (1999)
Degree Days  
Heating Degree Days 0 0  
Month to date heating degree days 11 14  
Since 1 June heating degree days 11 14  
Since 1 July heating degree days 5387 5404  
Cooling Degree Days 9 8  
Month to date cooling degree days 97 111  
Year to date cooling degree days 206 199  
Since 1 June cooling degree days 97 111  
Growing Degree Days 24 (Base 50)    
Moisture  
Dew Point 65 °F    
Average Humidity 76    
Maximum Humidity 100    
Minimum Humidity 51    
Precipitation  
Precipitation 0.31 in 0.12 in 1.39 in (1978)
Month to date precipitation 2.30 2.68  
Year to date precipitation 24.95 17.03  
Sea Level Pressure  
Sea Level Pressure 29.93 in    
Wind  
Wind Speed 5 mph (NNE)    
Max Wind Speed 18 mph    
Max Gust Speed 22 mph    
Visibility 9 miles    
Events Rain , Thunderstorm    
T = Trace of Precipitation, MM = Missing Value Source: NWS Daily Summary

Daily Weather History Graph

Daily Weather History Graph

Search for Another Location

Airport:

Trip Planner

Search our weather history database for the weather conditions in past years. The results will help you decide how hot, cold, wet, or windy it might be!

Date:

Astronomy

Jun. 18, 2013 Rise Set
Actual Time 5:25 AM CDT 8:23 PM CDT
Civil Twilight 4:53 AM CDT 8:55 PM CDT
Nautical Twilight 4:12 AM CDT 9:36 PM CDT
Astronomical Twilight 3:24 AM CDT 10:24 PM CDT
Moon 3:08 PM CDT (6/18) 1:32 AM CDT (6/18)
Length of Visible Light 16h 02m
Length of Day
14h 57m
Waxing Gibbous, 71% of the Moon is Illuminated
Jun 18
Waxing Gibbous
Jun 23
Full
Jun 29
Last Quarter
Jul 8
New
Jul 15
First Quarter

Hourly Weather History & Observations

Time (CDT) Temp. Heat Index Dew Point Humidity Pressure Visibility Wind Dir Wind Speed Gust Speed Precip Events Conditions
12:53 AM 66.9 °F - 64.0 °F 90% 29.91 in 10.0 mi SW 3.5 mph - N/A   Clear
1:53 AM 66.0 °F - 64.0 °F 93% 29.90 in 10.0 mi Calm Calm - N/A   Clear
2:53 AM 64.9 °F - 63.0 °F 93% 29.90 in 10.0 mi West 4.6 mph - N/A   Clear
3:53 AM 63.0 °F - 62.1 °F 97% 29.90 in 10.0 mi West 4.6 mph - N/A   Clear
4:53 AM 63.0 °F - 62.1 °F 97% 29.90 in 10.0 mi Calm Calm - N/A   Clear
5:53 AM 63.0 °F - 62.1 °F 97% 29.93 in 10.0 mi WNW 5.8 mph - N/A   Clear
6:53 AM 68.0 °F - 63.0 °F 84% 29.93 in 10.0 mi West 9.2 mph - 0.01 in   Clear
7:53 AM 72.0 °F - 64.0 °F 76% 29.93 in 10.0 mi NW 6.9 mph - N/A   Clear
8:53 AM 75.0 °F - 66.0 °F 73% 29.94 in 10.0 mi NNW 6.9 mph - N/A   Clear
9:53 AM 77.0 °F - 66.9 °F 71% 29.92 in 10.0 mi Calm Calm - N/A   Clear
10:53 AM 80.1 °F 82.7 °F 68.0 °F 67% 29.92 in 10.0 mi Variable 3.5 mph - N/A   Clear
11:53 AM 82.0 °F 84.1 °F 66.0 °F 58% 29.92 in 10.0 mi NNE 6.9 mph - N/A   Clear
12:53 PM 84.9 °F 87.1 °F 66.0 °F 53% 29.91 in 10.0 mi North 5.8 mph - N/A   Clear
1:53 PM 84.0 °F 85.4 °F 64.0 °F 51% 29.90 in 10.0 mi Calm Calm - N/A   Mostly Cloudy
2:06 PM 82.4 °F 84.6 °F 66.2 °F 58% 29.91 in 10.0 mi ESE 3.5 mph - N/A Thunderstorm Thunderstorm
2:53 PM 77.0 °F - 71.1 °F 82% 29.90 in 10.0 mi Calm Calm - 0.00 in Rain , Thunderstorm Light Rain
3:53 PM 68.0 °F - 62.1 °F 81% 29.90 in 10.0 mi SE 10.4 mph - 0.03 in Rain , Thunderstorm Light Rain
4:03 PM 69.8 °F - 64.4 °F 83% 29.92 in 10.0 mi South 8.1 mph - 0.00 in Thunderstorm Scattered Clouds
4:24 PM 71.6 °F - 64.4 °F 78% 29.93 in 10.0 mi SSE 5.8 mph - 0.00 in   Clear
4:53 PM 73.9 °F - 66.0 °F 76% 29.91 in 10.0 mi South 5.8 mph - 0.00 in   Clear
5:53 PM 73.9 °F - 64.9 °F 73% 29.90 in 10.0 mi Calm Calm - 0.00 in Rain Light Rain
6:28 PM 73.4 °F - 66.2 °F 78% 29.92 in 10.0 mi South 3.5 mph - 0.00 in Rain , Thunderstorm Light Rain
6:43 PM 71.6 °F - 66.2 °F 83% 29.92 in 10.0 mi SSW 4.6 mph - 0.00 in Rain Light Rain
6:51 PM 73.4 °F - 66.2 °F 78% 29.92 in 10.0 mi South 5.8 mph - 0.00 in Thunderstorm Overcast
6:53 PM 73.0 °F - 66.9 °F 81% 29.91 in 10.0 mi South 4.6 mph - 0.00 in Rain , Thunderstorm Light Rain
7:06 PM 71.6 °F - 66.2 °F 83% 29.95 in 0.8 mi North 10.4 mph - 0.16 in Rain , Thunderstorm Heavy Rain
7:15 PM 71.6 °F - 66.2 °F 83% 29.96 in 2.0 mi NNE 11.5 mph 21.9 mph 0.21 in Rain , Thunderstorm Light Rain
7:23 PM 69.8 °F - 64.4 °F 83% 29.96 in 6.0 mi NNE 9.2 mph 17.3 mph 0.22 in Rain , Thunderstorm Light Rain
7:53 PM 68.0 °F - 64.0 °F 87% 29.95 in 6.0 mi ENE 9.2 mph - 0.25 in Rain , Thunderstorm Rain
8:00 PM 68.0 °F - 62.6 °F 83% 29.94 in 4.0 mi Variable 6.9 mph - 0.02 in Rain Rain
8:53 PM 66.0 °F - 62.1 °F 87% 29.93 in 10.0 mi ENE 6.9 mph - 0.03 in   Clear
9:53 PM 66.0 °F - 62.1 °F 87% 29.96 in 10.0 mi NE 6.9 mph - N/A   Clear
10:53 PM 64.0 °F - 62.1 °F 93% 29.98 in 10.0 mi NNE 5.8 mph - N/A   Clear
11:53 PM 64.0 °F - 62.1 °F 93% 29.98 in 10.0 mi NNE 4.6 mph - N/A   Clear